Fayetteville, NC

7:34 PM EDT on September 30, 2016 (GMT -0400)
Fayetteville Regional-Grannis

Weather History for KFAY - July, 2013

Change the Weather History Date:

Sunday, July 28, 2013

  Actual Average Record
Temperature  
Mean Temperature 81 °F 81 °F  
Max Temperature 89 °F 91 °F 105 °F (1940)
Min Temperature 72 °F 71 °F 55 °F (1920)
Degree Days  
Heating Degree Days 0 0  
Month to date heating degree days 0 0  
Since 1 June heating degree days 0 0  
Since 1 July heating degree days 0 0  
Cooling Degree Days 16 16  
Month to date cooling degree days 454 459  
Year to date cooling degree days 1098 1139  
Since 1 June cooling degree days 849 855  
Growing Degree Days 30 (Base 50)    
Moisture  
Dew Point 71 °F    
Average Humidity 74    
Maximum Humidity 93    
Minimum Humidity 55    
Precipitation  
Precipitation 0.03 in 0.18 in 3.11 in (1943)
Month to date precipitation 7.04 5.38  
Year to date precipitation 28.96 25.40  
Sea Level Pressure  
Sea Level Pressure 29.94 in    
Wind  
Wind Speed 6 mph (SSW)    
Max Wind Speed 13 mph    
Max Gust Speed 16 mph    
Visibility 9 miles    
Events Rain , Thunderstorm    
T = Trace of Precipitation, MM = Missing Value Source: NWS Daily Summary

Daily Weather History Graph

Daily Weather History Graph

Search for Another Location

Airport or City:

Trip Planner

Search our weather history database for the weather conditions in past years. The results will help you decide how hot, cold, wet, or windy it might be!

Date:

Astronomy

Jul. 28, 2013 Rise Set
Actual Time 6:22 AM EDT 8:21 PM EDT
Civil Twilight 5:54 AM EDT 8:49 PM EDT
Nautical Twilight 5:19 AM EDT 9:23 PM EDT
Astronomical Twilight 4:43 AM EDT 9:59 PM EDT
Moon No Moon Rise 12:44 PM EDT (7/28)
Length of Visible Light 14h 55m
Length of Day
13h 59m
Waning Gibbous, 61% of the Moon is Illuminated
Jul 28
Waning Gibbous
Jul 29
Last Quarter
Aug 6
New
Aug 14
First Quarter
Aug 20
Full

Hourly Weather History & Observations

Time (EDT) Temp. Heat Index Dew Point Humidity Pressure Visibility Wind Dir Wind Speed Gust Speed Precip Events Conditions
12:50 AM 71.6 °F - 71.6 °F 100% 29.94 in 7.0 mi SE 5.8 mph - 0.03 in Rain , Thunderstorm Light Rain
12:53 AM 72.0 °F - 71.1 °F 97% 29.92 in 7.0 mi SSE 5.8 mph - 0.03 in Rain , Thunderstorm Light Rain
1:05 AM 71.6 °F - 71.6 °F 100% 29.94 in 10.0 mi SSW 4.6 mph - 0.01 in Rain Light Rain
1:53 AM 72.0 °F - 71.1 °F 97% 29.91 in 10.0 mi South 3.5 mph - 0.04 in Rain Light Rain
2:53 AM 73.0 °F - 71.1 °F 93% 29.91 in 10.0 mi Calm Calm - 0.00 in   Clear
3:53 AM 73.0 °F - 71.1 °F 93% 29.91 in 9.0 mi West 3.5 mph - N/A   Clear
4:43 AM 73.4 °F - 71.6 °F 94% 29.93 in 8.0 mi Calm Calm - N/A   Scattered Clouds
4:53 AM 73.0 °F - 71.1 °F 93% 29.91 in 8.0 mi Calm Calm - N/A   Mostly Cloudy
5:43 AM 73.4 °F - 71.6 °F 94% 29.93 in 8.0 mi NNW 3.5 mph - N/A   Scattered Clouds
5:53 AM 73.0 °F - 71.1 °F 93% 29.91 in 8.0 mi NNW 4.6 mph - N/A   Scattered Clouds
6:10 AM 73.4 °F - 71.6 °F 94% 29.94 in 8.0 mi Calm Calm - N/A   Mostly Cloudy
6:53 AM 73.0 °F - 71.1 °F 93% 29.93 in 7.0 mi Calm Calm - N/A   Overcast
7:18 AM 73.4 °F - 71.6 °F 94% 29.96 in 6.0 mi Calm Calm - N/A   Scattered Clouds
7:53 AM 73.9 °F - 72.0 °F 93% 29.95 in 7.0 mi Calm Calm - N/A   Scattered Clouds
8:36 AM 73.4 °F - 71.6 °F 94% 29.98 in 9.0 mi SSE 3.5 mph - N/A   Mostly Cloudy
8:43 AM 73.4 °F - 71.6 °F 94% 29.98 in 10.0 mi South 4.6 mph - N/A   Mostly Cloudy
8:53 AM 73.9 °F - 72.0 °F 93% 29.96 in 10.0 mi South 3.5 mph - N/A   Mostly Cloudy
9:53 AM 75.9 °F - 72.0 °F 87% 29.95 in 10.0 mi SSW 3.5 mph - N/A   Partly Cloudy
10:53 AM 79.0 °F - 73.0 °F 82% 29.96 in 10.0 mi SW 8.1 mph - N/A   Partly Cloudy
11:53 AM 81.0 °F 85.8 °F 73.0 °F 77% 29.97 in 10.0 mi WSW 6.9 mph - N/A   Partly Cloudy
12:53 PM 84.0 °F 89.6 °F 72.0 °F 67% 29.96 in 10.0 mi SW 8.1 mph - N/A   Partly Cloudy
1:53 PM 87.1 °F 93.6 °F 72.0 °F 61% 29.94 in 10.0 mi South 8.1 mph - N/A   Scattered Clouds
2:53 PM 87.1 °F 92.8 °F 71.1 °F 59% 29.94 in 10.0 mi SSW 6.9 mph - N/A   Partly Cloudy
3:53 PM 87.1 °F 92.0 °F 70.0 °F 57% 29.93 in 10.0 mi South 8.1 mph - N/A   Partly Cloudy
4:53 PM 88.0 °F 92.9 °F 70.0 °F 55% 29.92 in 10.0 mi SSW 9.2 mph - N/A   Scattered Clouds
5:53 PM 88.0 °F 92.9 °F 70.0 °F 55% 29.92 in 10.0 mi SSW 8.1 mph - N/A   Partly Cloudy
6:53 PM 84.9 °F 90.1 °F 71.1 °F 63% 29.94 in 10.0 mi South 8.1 mph - N/A   Clear
7:53 PM 82.9 °F 88.0 °F 72.0 °F 69% 29.95 in 9.0 mi South 5.8 mph - N/A   Clear
8:53 PM 81.0 °F 84.9 °F 71.1 °F 72% 29.97 in 10.0 mi South 8.1 mph - N/A   Clear
9:53 PM 79.0 °F - 70.0 °F 74% 29.99 in 10.0 mi South 8.1 mph - N/A   Clear
10:53 PM 77.0 °F - 72.0 °F 84% 29.99 in 10.0 mi South 8.1 mph - N/A   Clear
11:53 PM 77.0 °F - 73.0 °F 88% 29.99 in 10.0 mi SSW 9.2 mph - N/A   Clear